Home   Weather   Fairfield Public Beach   Past weeks
Flag for USA

Past Weather in Fairfield Public Beach, Connecticut, USA — Yesterday and Last 2 Weeks

Now
30 °F

Sunny.


Feels Like: 24 °F
Forecast: 37 / 25 °F
Wind: 6 mph from Northwest

Location: Sikorsky Memorial Airport

Current Time: Dec 7, 2019 at 9:02:05 am

Latest Report: Dec 7, 2019 at 7:52 am


Visibility: 10 mi

Pressure: 30.33 "Hg

Humidity: 61%

Dew Point: 18 °F

Location of Fairfield Public BeachLocation

Past Weather in Fairfield Public Beach — Graph

°F

Fairfield Public Beach Temperature Yesterday

Maximum temperature yesterday: 49 °F (at 6:52 pm)
Minimum temperature yesterday: 33 °F (at 1:52 am)
Average temperature yesterday: 41 °F

High & Low Weather Summary for the Past Weeks

 TemperatureHumidityPressure
High58 °F (Nov 26, 1:52 pm)97% (Nov 27, 9:52 am)30.33 "Hg (Nov 27, 9:52 am)
Low26 °F (Dec 1, 4:52 am)22% (Nov 30, 1:52 pm)29.15 "Hg (Nov 24, 11:52 am)
Average40 °F69%29.79 "Hg
* Reported Nov 22 7:52 am — Dec 7 7:52 am, Fairfield Public Beach. Weather by CustomWeather, © 2019

Note: Actual official high and low records may vary slightly from our data, if they occured in-between our weather recording intervals... More about our weather records

Fairfield Public Beach Weather History for the Previous 24 Hours

Scroll right to see more
 ConditionsComfort  
Time TempWeatherWind HumidityBarometerVisibility
7:52 am
Sat, Dec 7
30 °FSunny.6 mph61%30.33 "Hg10 mi
6:52 am29 °FClear.5 mph64%30.31 "Hg10 mi
5:52 am30 °FClear.6 mph61%30.27 "Hg10 mi
4:52 am31 °FClear.3 mph61%30.24 "Hg10 mi
3:52 am32 °FClear.7 mph61%30.22 "Hg10 mi
2:52 am34 °FClear.9 mph56%30.19 "Hg10 mi
1:52 am35 °FClear.7 mph59%30.16 "Hg10 mi
12:52 am36 °FClear.7 mph62%30.13 "Hg10 mi
11:52 pm
Fri, Dec 6
37 °FClear.8 mph65%30.11 "Hg10 mi
10:52 pm40 °FClear.12 mph60%30.09 "Hg10 mi
9:52 pm42 °FClear.14 mph53%30.06 "Hg10 mi
8:52 pm45 °FClear.16 mph48%30.01 "Hg10 mi
7:52 pm47 °FOvercast.14 mph52%29.98 "Hg10 mi
6:52 pm49 °FMostly cloudy.14 mph50%29.95 "Hg10 mi
5:52 pm48 °FOvercast.13 mph59%29.93 "Hg10 mi
4:52 pm48 °FOvercast.14 mph68%29.91 "Hg10 mi
3:52 pm47 °FOvercast.13 mph69%29.92 "Hg10 mi
2:52 pm46 °FOvercast.13 mph63%29.95 "Hg10 mi
1:52 pm46 °FOvercast.16 mph56%29.98 "Hg10 mi
12:52 pm45 °FMostly cloudy.12 mph56%30.00 "Hg10 mi
11:52 am44 °FMostly cloudy.16 mph53%30.03 "Hg10 mi
10:52 am42 °FPassing clouds.15 mph53%30.09 "Hg10 mi
9:52 am40 °FSunny.13 mph55%30.11 "Hg10 mi
Weather by CustomWeather, © 2019

See weather overview

Advertising